TIME,DELAY(SENSOR),PRES,OXYGEN,RAWTEMP,T(OPTODE),TCPHASE,FLUOR,BETA(BETA700),BETA(BETA412),BETA(BETA440),CDOM,C(CSC),ED(ED411.90),ED(ED443.80),ED(ED489.40),ED(ED554.70),LU(LU412.20),LU(LU443.80),LU(LU489.40),LU(LU555.00),COMP,TILTX,TILTY,CHECK
1362005759,5806,864.1699829101562000,181.7727050781250000,481.2392883300781000,8.1103801727294920,38.7529411315918000,80,428,96,78,81,11715,2146962404,2147517467,2147293403,2147509741,2147088850,2146930925,2147712630,2147124443,740,-1,8,10647
1362009356,5804,958.0900268554688000,234.7053985595703000,543.2952270507812000,6.1797180175781250,36.6939392089843750,80,427,97,78,81,11709,2146963245,2147518171,2147298962,2147523958,2147088182,2146916525,2147729691,2147118189,1336,-1,8,10639
1362012956,5810,983.5399780273438000,249.8632965087890600,556.3333740234375000,5.7704892158508300,36.1615715026855500,81,428,97,78,80,11697,2146964342,2147518482,2147301019,2147523794,2147090048,2146925485,2147730130,2147117568,5,0,8,37299
1362016556,5806,989.0999755859375000,252.2693023681640600,558.1873168945312000,5.7121891975402830,36.0778083801269500,88,427,97,79,80,11689,2146962788,2147514998,2147301906,2147523072,2147087954,2146917403,2147731684,2147122112,103,-1,8,25113
1362020156,5805,992.9699707031250000,251.6412963867187500,558.6776733398438000,5.6967620849609375,36.1175613403320300,85,429,98,81,81,11679,2146961782,2147515200,2147300653,2147526025,2147088630,2146920228,2147732534,2147121106,2917,-1,8,23920
1362023756,5807,995.4000244140625000,251.5959014892578000,559.4575805664062000,5.6722278594970700,36.1343116760253900,85,427,98,79,79,11676,2146964507,2147518409,2147299885,2147524205,2147089453,2146916498,2147733906,2147118436,3320,-1,8,43516
1362027356,5806,995.1099853515625000,258.7265014648437500,562.9171752929688000,5.5633239746093750,35.8546791076660160,85,425,98,79,81,11671,2146961755,2147518043,2147299885,2147525476,2147089133,2146919826,2147732022,2147121225,3181,-1,8,29417
1362030956,5804,998.9799804687500000,259.8678894042969000,563.4545288085938000,5.5464019775390625,35.8109588623046900,87,426,98,78,81,11673,2146959680,2147515108,2147299428,2147526802,2147086262,2146922706,2147731181,2147121426,3526,-1,8,18990
1362034556,5804,1000.0399780273438000,259.7547912597656000,563.3344116210938000,5.5501861572265625,35.8134803771972660,87,424,97,80,81,11672,2146960694,2147520356,2147301385,2147526921,2147088621,2146922157,2147732022,2147119990,3543,0,9,39925
1362038156,5807,1004.8699951171875000,258.2896118164062500,561.3875122070312000,5.6114897727966310,35.8475303649902340,89,423,99,79,80,11670,2146964672,2147519552,2147301458,2147528548,2147089929,2146919305,2147735597,2147117897,3241,-1,8,22693
1362041756,5803,1005.6599731445312000,255.4461975097656200,560.9876708984375000,5.6240730285644530,35.9758186340332000,89,424,99,79,81,11671,2146963574,2147518573,2147299190,2147524562,2147090093,2146919579,2147733220,2147121362,3216,0,8,65222
1362045356,5808,1001.8300170898438000,258.8953857421875000,562.9619750976562000,5.5619139671325680,35.8473091125488300,85,423,98,78,81,11672,2146961590,2147517796,2147303332,2147524416,2147089636,2146915776,2147730614,2147119990,3360,-1,8,41202
1362048956,5804,1006.8499755859375000,260.1521911621094000,563.3864746093750000,5.5485439300537110,35.7963790893554700,88,426,99,80,80,11663,2146963529,2147515145,2147301293,2147525705,2147087497,2146917330,2147729819,2147120978,251,-1,8,719
1362052556,5808,1005.0800170898438000,260.1250000000000000,563.4254760742188000,5.5473160743713380,35.7981910705566400,88,427,99,79,79,11667,2146965037,2147516736,2147300397,2147524013,2147091995,2146923008,2147729270,2147120237,218,0,8,42435
1362056156,5808,1002.6599731445312000,259.9230957031250000,565.2122802734375000,5.4910221099853520,35.8406791687011700,88,424,99,79,80,11666,2146962422,2147517147,2147304036,2147527195,2147091776,2146914742,2147733220,2147117275,272,0,8,9737
1362059756,5806,1005.6900024414062000,261.1906127929687500,564.1989746093750000,5.5229511260986330,35.7623291015625000,91,426,99,79,79,11657,2146963318,2147519478,2147302820,2147526034,2147090377,2146921910,2147730450,2147119762,125,-1,8,33183
1362063356,5803,1000.5599975585938000,259.6832885742187500,566.3190917968750000,5.4561419486999510,35.8720588684082000,88,426,98,79,80,11661,2146963145,2147520009,2147300909,2147524333,2147088676,2146917440,2147735323,2147119917,3309,-1,8,45899
1362066956,5806,1002.6599731445312000,261.9685058593750000,566.5775146484375000,5.4479980468750000,35.7694587707519500,90,425,98,77,81,11661,2146962496,2147519122,2147300214,2147526336,2147085686,2146920009,2147732608,2147118957,28,0,8,24947
1362070556,5806,1004.0599975585938000,263.4765014648437500,566.1655273437500000,5.4609827995300290,35.6918601989746100,90,426,99,80,80,11663,2146964205,2147520932,2147300251,2147525668,2147090057,2146916562,2147735277,2147123190,3037,-1,8,62227
1362074156,5807,1010.2500000000000000,261.3388977050781000,565.3751220703125000,5.4858951568603520,35.7765388488769500,92,427,99,79,80,11662,2146967049,2147519414,2147303606,2147525549,2147087305,2146920603,2147733074,2147120438,3497,-1,8,39088
1362077756,5805,1007.3800048828125000,259.2553100585937500,564.5565795898438000,5.5116839408874510,35.8599395751953100,90,425,98,79,81,11660,2146962944,2147517824,2147297700,2147525184,2147084553,2146918400,2147733202,2147116388,3424,-1,8,29447
1362081356,5804,1007.3900146484375000,261.5752868652344000,565.5518188476562000,5.4803280830383300,35.7693786621093750,90,431,99,81,80,11659,2146965092,2147516580,2147300937,2147527789,2147088210,2146921801,2147731392,2147119680,3435,-1,9,63577
1362084956,5805,1005.2600097656250000,259.3109130859375000,564.5947265625000000,5.5104851722717285,35.8579483032226560,88,428,98,79,79,11657,2146963282,2147516498,2147299949,2147525440,2147088603,2146922057,2147730678,2147120758,3510,0,9,51836
1362088556,5805,1006.0000000000000000,262.3056945800781000,566.6915893554688000,5.4444007873535160,35.7560615539550800,90,428,98,80,80,11657,2146964864,2147519158,2147301366,2147527652,2147088603,2146916845,2147733504,2147121581,3268,-1,8,48866
1362092156,5803,1007.7199707031250000,262.8291931152344000,566.5526733398438000,5.4487800598144530,35.7286491394043000,90,431,97,79,81,11656,2146963904,2147518866,2147303634,2147527890,2147085531,2146918573,2147732763,2147118966,3381,0,8,10965
1362095756,5809,1010.6099853515625000,261.8916015625000000,565.2476806640625000,5.4899101257324220,35.7486991882324200,91,430,99,79,79,11653,2146962377,2147513947,2147298870,2147524937,2147085604,2146913581,2147732315,2147118052,79,-1,8,19004
1362099356,5803,1005.1400146484375000,260.7936096191406000,565.2324218750000000,5.4903931617736820,35.8001098632812500,88,431,99,80,81,11648,2146964425,2147518628,2147302217,2147528713,2147088557,2146918116,2147730450,2147117385,3139,-1,8,50729
1362102956,5802,1006.0399780273438000,262.7478942871094000,566.2943115234375000,5.4569239616394040,35.7280616760253900,87,429,98,79,80,11650,2146961517,2147517467,2147299602,2147526528,2147088493,2146917211,2147732507,2147120374,3438,0,8,35909
1362106556,5804,1005.3800048828125000,263.3962097167969000,566.6329956054688000,5.4462471008300780,35.7036590576171900,87,430,99,82,80,11646,2146961243,2147516452,2147301458,2147527314,2147086747,2146916608,2147730596,2147115776,3442,-1,8,4327
1362110156,5807,1007.5300292968750000,263.6178894042969000,566.6641845703125000,5.4452648162841800,35.6939201354980500,90,430,98,80,80,11647,2146960832,2147516653,2147298130,2147529042,2147086573,2146918244,2147736265,2147118930,3486,-1,9,51187
1362113756,5806,1004.4299926757812000,262.3341979980469000,567.3594970703125000,5.4233441352844240,35.7671585083007800,88,432,99,79,82,11648,2146960283,2147517814,2147296950,2147528557,2147086930,2146922569,2147730651,2147121426,2488,0,8,55522
1362117356,5805,1011.8800048828125000,263.5685119628906000,566.8380737304688000,5.4397811889648440,35.6999092102050800,90,430,100,79,81,11652,2146964580,2147517238,2147297691,2147528603,2147088128,2146920502,2147731035,2147118418,118,0,8,26719
1362120956,5807,1013.2199707031250000,263.0993957519531000,566.5092773437500000,5.4501481056213380,35.7156295776367200,91,434,97,79,80,11644,2146966409,2147516461,2147300598,2147524324,2147087506,2146921344,2147734473,2147120640,3531,-1,8,17454
1362124556,5807,1006.7899780273438000,261.6445922851562500,566.5017089843750000,5.4503860473632810,35.7827682495117200,83,432,99,80,81,11644,2146961142,2147519954,2147299382,2147527670,2147088018,2146922724,2147733851,2147116105,387,-1,8,35632
1362128156,5804,1008.9799804687500000,261.3996887207031000,565.1729736328125000,5.4922618865966800,35.7706604003906250,89,466,100,80,80,11631,2146961581,2147518454,2147297801,2147524077,2147089216,2146918912,2147733741,2147119497,3369,0,8,13202
1362131756,5808,1006.5900268554688000,262.9332885742187500,567.5144042968750000,5.4184589385986330,35.7418708801269500,82,431,98,79,80,11643,2146965248,2147515538,2147300480,2147526994,2147089435,2146921060,2147731556,2147118290,579,-1,8,16975
1362135356,5804,1010.1300048828125000,263.4042053222656000,566.2603149414062000,5.4579958915710450,35.6967315673828100,91,433,98,79,80,11640,2146963675,2147519451,2147297142,2147526217,2147086738,2146914304,2147735716,2147119808,3345,-1,9,58064
1362138956,5806,1007.2199707031250000,262.4450988769531000,566.3259277343750000,5.4559288024902340,35.7427482604980500,83,434,99,79,81,11638,2146962422,2147519698,2147300196,2147529398,2147088109,2146918966,2147731830,2147118802,3416,-1,8,61525
1362142556,5803,1008.1099853515625000,260.7384948730469000,567.4611816406250000,5.4201369285583500,35.8430290222168000,91,433,100,79,81,11638,2146962861,2147516178,2147301869,2147529453,2147088740,2146918774,2147734080,2147117513,3315,-1,8,12904
1362146156,5806,1001.5800170898438000,265.1211853027344000,569.9733276367188000,5.3409061431884770,35.6853294372558600,87,435,99,79,81,11640,2146961892,2147517942,2147301888,2147527332,2147089051,2146919177,2147735414,2147119506,3000,-1,8,53964
1362148555,5805,1008.5300292968750000,267.9500122070312500,570.5717163085938000,5.3220210075378420,35.5667304992675800,90,434,98,79,80,11657,2146963593,2147519469,2147300288,2147527954,2147087030,2146918400,2147731593,2147118957,2928,-1,8,45988
